RISAT-2BR1

operational
NORAD ID: 44857 Int'l Des: 2019-089 Owner: ISRO Country: IN
LEOCIRCULAR

About RISAT-2BR1

Description loading...

Live Position

Loading 3D Globe...

Upcoming Passes

Altitude History

Altitude vs Time

uPlot chart will show altitude changes over time

Two-Line Element Set

1 44857U 19089F 26061.21971184 .00005773 00000-0 44243-3 0 9995
2 44857 36.9618 26.1844 0013925 20.6472 339.4831 15.01536324341110
Epoch: Mar 2, 2026 • Age: 44 hours

Current Status

Altitude 570.5 km
Velocity 7.57 km/s
Sub-Earth Point -4.25°S, 94.46°E
Launch Date Dec 11, 2019
Age 6.2 years
Type other

Technical Details

Classification Payload
Mass 628.00 kg
Dry Mass 628.00 kg
Total Mass 628.00 kg
Length 2.00 m
Diameter 1.00 m
Span 5.00 m
Shape Hex Cyl + 2 Pan + Dish
Manufacturer ISRO
Bus Type TechSar
Phase Status In Orbit
Owner/State ISRO/IN

Large Constellations

Loading constellations...